Weather History for Clinton-Sherman, OK

Change the Weather History Date:

Wednesday, February 20, 2013

  Actual Average Record
Temperature  
Mean Temperature 38 °F -  
Max Temperature 43 °F 52 °F 75 °F (2011)
Min Temperature 33 °F 32 °F 24 °F (2006)
Degree Days  
Heating Degree Days 27    
Moisture  
Dew Point 34 °F    
Average Humidity 89    
Maximum Humidity 100    
Minimum Humidity 47    
Precipitation  
Precipitation 0.15 in - - ()
Sea Level Pressure  
Sea Level Pressure 30.00 in    
Wind  
Wind Speed 21 mph (SE)    
Max Wind Speed 33 mph    
Max Gust Speed 43 mph    
Visibility 6 miles    
Events Rain , Snow    
Averages and records for this station are not official NWS values.
T = Trace of Precipitation, MM = Missing Value Source: NWS Daily Summary

Daily Weather History Graph

Daily Weather History Graph

Search for Another Location

Airport:

Trip Planner

Search our weather history database for the weather conditions in past years. The results will help you decide how hot, cold, wet, or windy it might be!

Date:

Astronomy

Feb. 20, 2013 Rise Set
Actual Time 7:17 AM CST 6:24 PM CST
Civil Twilight 6:51 AM CST 6:50 PM CST
Nautical Twilight 6:21 AM CST 7:19 PM CST
Astronomical Twilight 5:52 AM CST 7:49 PM CST
Moon 1:53 PM CST (2/20) 3:32 AM CST (2/20)
Length of Visible Light 11h 58m
Length of Day
11h 07m
Waxing Gibbous, 76% of the Moon is Illuminated
Feb 20
Waxing Gibbous
Feb 25
Full
Mar 4
Last Quarter
Mar 11
New
Mar 19
First Quarter

Hourly Weather History & Observations

Time (CST) Temp. Windchill Dew Point Humidity Pressure Visibility Wind Dir Wind Speed Gust Speed Precip Events Conditions
12:53 AM 43.0 °F 35.4 °F 24.1 °F 47% 30.10 in 10.0 mi ESE 16.1 mph - N/A   Overcast
1:53 AM 43.0 °F 32.5 °F 30.9 °F 62% 30.10 in 10.0 mi SSE 29.9 mph 40.3 mph 0.00 in Rain Light Rain
2:49 AM 39.2 °F 28.3 °F 33.8 °F 81% 30.11 in 10.0 mi SSE 25.3 mph 29.9 mph 0.00 in Rain Light Rain
2:53 AM 39.9 °F 29.7 °F 34.0 °F 79% 30.11 in 9.0 mi SSE 23.0 mph 31.1 mph 0.00 in Rain Light Rain
3:50 AM 37.4 °F 26.6 °F 33.8 °F 87% 30.09 in 8.0 mi SSE 21.9 mph 28.8 mph 0.03 in Rain Light Rain
3:53 AM 37.9 °F 27.3 °F 34.0 °F 86% 30.09 in 8.0 mi SSE 21.9 mph 28.8 mph 0.03 in Rain Light Rain
4:01 AM 37.4 °F 25.9 °F 33.8 °F 87% 30.08 in 7.0 mi SE 25.3 mph 31.1 mph 0.00 in Rain Light Rain
4:44 AM 35.6 °F 25.5 °F 33.8 °F 93% 30.08 in 7.0 mi SE 17.3 mph - 0.03 in Rain Light Rain
4:53 AM 36.0 °F 26.0 °F 34.0 °F 93% 30.08 in 7.0 mi SE 17.3 mph - 0.04 in Rain Light Rain
5:53 AM 36.0 °F 25.0 °F 33.1 °F 89% 30.07 in 7.0 mi ESE 20.7 mph 26.5 mph 0.02 in Rain Rain
6:50 AM 35.6 °F 24.0 °F 33.8 °F 93% 30.05 in 3.0 mi SE 23.0 mph - 0.02 in Snow Light Snow
7:01 AM 33.8 °F 22.2 °F 33.8 °F 100% 30.05 in 2.5 mi SE 20.7 mph - 0.00 in Snow Light Snow
7:09 AM 33.8 °F 22.5 °F 33.8 °F 100% 30.06 in 3.0 mi SE 19.6 mph 27.6 mph 0.01 in Snow Light Snow
7:16 AM 33.8 °F 22.8 °F 32.0 °F 93% 30.06 in 2.0 mi SE 18.4 mph - 0.02 in Snow Light Snow
7:36 AM 33.8 °F 22.2 °F 32.0 °F 93% 30.06 in 3.0 mi SE 20.7 mph 25.3 mph 0.03 in Snow Light Snow
7:40 AM 33.8 °F 22.5 °F 32.0 °F 93% 30.06 in 1.8 mi SE 19.6 mph - 0.04 in Snow Light Snow
7:53 AM 33.1 °F 22.2 °F 32.0 °F 96% 30.09 in 2.5 mi SE 17.3 mph 23.0 mph 0.04 in Snow Light Snow
8:02 AM 33.8 °F 22.8 °F 32.0 °F 93% 30.06 in 3.0 mi SE 18.4 mph - 0.00 in Snow Light Snow
8:10 AM 33.8 °F 22.8 °F 32.0 °F 93% 30.06 in 2.0 mi SE 18.4 mph - 0.00 in Snow Light Snow
8:29 AM 33.8 °F 24.8 °F 33.8 °F 100% 30.08 in 3.0 mi SE 12.7 mph - 0.01 in Snow Light Snow
8:42 AM 33.8 °F 24.3 °F 33.8 °F 100% 30.08 in 3.0 mi SE 13.8 mph - 0.01 in Rain Light Freezing Rain
8:53 AM 34.0 °F 23.0 °F 33.1 °F 96% 30.07 in 5.0 mi ESE 18.4 mph - 0.01 in Rain Light Freezing Rain
9:10 AM 35.6 °F 26.2 °F 33.8 °F 93% 30.04 in 6.0 mi SE 15.0 mph - 0.01 in Rain Light Rain
9:53 AM 37.0 °F 26.4 °F 36.0 °F 96% 30.03 in 10.0 mi SE 20.7 mph - 0.01 in   Overcast
10:34 AM 39.2 °F 29.8 °F 37.4 °F 93% 30.03 in 10.0 mi SE 18.4 mph 27.6 mph N/A   Overcast
10:53 AM 39.9 °F 29.7 °F 37.0 °F 89% 30.03 in 10.0 mi SE 23.0 mph - N/A   Overcast
11:07 AM 41.0 °F 30.7 °F 37.4 °F 87% 30.02 in 10.0 mi SE 25.3 mph 32.2 mph N/A   Overcast
11:24 AM 42.8 °F 32.5 °F 37.4 °F 81% 30.02 in 10.0 mi SE 28.8 mph 35.7 mph N/A   Overcast
11:53 AM 42.1 °F 30.8 °F 36.0 °F 79% 30.03 in 10.0 mi SE 33.4 mph 42.6 mph N/A   Overcast
12:11 PM 42.8 °F 33.1 °F 35.6 °F 76% 30.02 in 10.0 mi SE 25.3 mph 36.8 mph N/A   Overcast
12:53 PM 42.1 °F 32.1 °F 36.0 °F 79% 30.01 in 10.0 mi SE 25.3 mph 34.5 mph N/A   Overcast
1:41 PM 41.0 °F 30.7 °F 33.8 °F 76% 29.96 in 10.0 mi SE 25.3 mph 39.1 mph N/A   Overcast
1:53 PM 39.9 °F 28.8 °F 34.0 °F 79% 29.97 in 10.0 mi ESE 27.6 mph 34.5 mph N/A   Overcast
2:15 PM 37.4 °F 26.1 °F 33.8 °F 87% 29.95 in 10.0 mi ESE 24.2 mph 32.2 mph N/A   Overcast
3:00 PM 37.4 °F 26.6 °F 35.6 °F 93% 29.92 in 9.0 mi SE 21.9 mph 28.8 mph N/A   Overcast
3:36 PM 37.4 °F 26.1 °F 33.8 °F 87% 29.91 in 8.0 mi SE 24.2 mph 35.7 mph N/A   Overcast
3:44 PM 37.4 °F 25.6 °F 33.8 °F 87% 29.91 in 6.0 mi ESE 26.5 mph 33.4 mph N/A   Overcast
4:21 PM 35.6 °F 24.5 °F 33.8 °F 93% 29.90 in 2.5 mi ESE 20.7 mph 29.9 mph N/A   Overcast
4:53 PM 36.0 °F 25.3 °F 33.1 °F 89% 29.90 in 2.0 mi ESE 19.6 mph 29.9 mph N/A   Overcast
5:24 PM 35.6 °F 24.5 °F 33.8 °F 93% 29.87 in 1.8 mi ESE 20.7 mph 27.6 mph N/A   Overcast
5:43 PM 35.6 °F 24.5 °F 33.8 °F 93% 29.87 in 2.0 mi ESE 20.7 mph 26.5 mph N/A   Overcast
5:53 PM 35.1 °F 24.5 °F 34.0 °F 96% 29.90 in 1.8 mi ESE 18.4 mph 27.6 mph N/A   Overcast
6:25 PM 35.6 °F 24.8 °F 33.8 °F 93% 29.88 in 2.5 mi ESE 19.6 mph - N/A   Overcast
6:53 PM 35.1 °F 24.1 °F 33.1 °F 92% 29.91 in 2.5 mi ESE 19.6 mph - N/A   Overcast
7:53 PM 34.0 °F 23.8 °F 33.1 °F 96% 29.92 in 2.0 mi ESE 16.1 mph 24.2 mph N/A   Overcast
8:53 PM 34.0 °F 23.4 °F 33.1 °F 96% 29.91 in 2.0 mi ESE 17.3 mph - N/A   Overcast
9:53 PM 34.0 °F 22.4 °F 33.1 °F 96% 29.88 in 2.0 mi ESE 20.7 mph 27.6 mph N/A   Overcast
10:53 PM 34.0 °F 23.4 °F 33.1 °F 96% 29.87 in 2.0 mi ESE 17.3 mph 25.3 mph N/A   Overcast
11:46 PM 33.8 °F 23.2 °F 32.0 °F 93% 29.78 in 1.8 mi East 17.3 mph - N/A   Overcast
11:53 PM 33.1 °F 22.6 °F 32.0 °F 96% 29.81 in 2.5 mi East 16.1 mph 25.3 mph N/A   Overcast